Terminal Aerodrome Forecast
Issued by NWS Raleigh/Durham, NC

Home | Current Version | Previous Version | Text Only | Print | Product List | Glossary On
Versions: 1 2 3 4 5 6 7 8 9 10 11 12 13 14 15 16 17 18 19 20 21 22 23 24 25 26 27 28 29 30 31 32 33 34 35 36 37 38 39 40 41 42 43 44
000
FTUS42 KRAH 011125
TAFGSO
TAF
KGSO 011125Z 0112/0212 VRB03KT P6SM BKN150
     FM011800 21012G18KT P6SM SCT025 BKN100
     FM020000 18008KT P6SM BKN035
      TEMPO 0203/0206 6SM -RA BR OVC015
     FM020600 18013G23KT 4SM -RA OVC007
     FM020900 21015G25KT 1SM -RA BR OVC003=

USA.gov is the U.S. government's official web portal to all federal, state and local government web resources and services.